Regional Weather Roundup
Issued by NWS

Home | Current Version | Previous Version | Graphics & Text | Print | Product List | Glossary On
Versions: 1 2 3 4 5 6 7 8 9 10 11 12 13 14 15 16 17 18 19 20 21 22 23 24 25 26 27 28 29 30 31 32 33 34 35 36 37 38 39 40 41 42 43 44 45 46 47 48 49 50
000
ASUS43 KFSD 251302
RWRSD

WEATHER ROUNDUP FOR SOUTH DAKOTA
NATIONAL WEATHER SERVICE SIOUX FALLS SD
700 AM CST TUE NOV 25 2014

NOTE: "FAIR" INDICATES FEW OR NO CLOUDS BELOW 12,000 FEET WITH NO
SIGNIFICANT WEATHER AND/OR OBSTRUCTIONS TO VISIBILITY.


SDZ001>005-009-010-012>017-251400-
NORTHWEST AND NORTH CENTRAL SOUTH DAKOTA

CITY           SKY/WX    TMP DP  RH WIND       PRES   REMARKS
BUFFALO          N/A     31  23  72 W8        29.75F WCI  23
FAITH            N/A     24  20  84 S12       29.86F WCI  13
MOBRIDGE       MOCLDY    23  20  88 SE5       29.88F WCI  17
$$

SDZ012>016-024>037-041>051-057-063-072>074-251400-
SOUTHWEST AND SOUTH CENTRAL SOUTH DAKOTA

CITY           SKY/WX    TMP DP  RH WIND       PRES   REMARKS
RAPID CTY ARPT CLOUDY    26  20  77 SE5       29.86F WCI  20
PIERRE         MOCLDY    23  21  92 SW5       29.93F WCI  17
CUSTER         CLOUDY    21  16  81 S5        29.81F WCI  15
ELLSWORTH AFB  CLOUDY    31  20  64 SW2       29.85F
PHILIP         CLOUDY   N/A N/A N/A S3        29.91F
PINE RIDGE     CLOUDY    23  19  85 NW3       29.91F
WINNER         FAIR      27  22  81 SW7       29.98F WCI  19
$$

SDZ004>011-016>023-039-040-251400-
NORTHEAST SOUTH DAKOTA

CITY           SKY/WX    TMP DP  RH WIND       PRES   REMARKS
ABERDEEN       CLOUDY    23  17  78 S7        29.95F WCI  15
WATERTOWN      CLOUDY    18  10  71 S7        29.94F WCI   9
SISSETON         N/A     23  13  65 SW6       29.94F WCI  16
$$

SDZ017-020-022-023-036>040-048>070-251400-
SOUTHEAST SOUTH DAKOTA

CITY           SKY/WX    TMP DP  RH WIND       PRES   REMARKS
SIOUX FALLS    MOCLDY    13   7  77 SW3       30.03F
HURON          CLOUDY    22  16  78 S5        29.98F WCI  16
CHAMBERLAIN    CLEAR     20  17  89 SW6       29.97F WCI  12
MITCHELL       PTCLDY    19  15  84 S7        30.01F WCI  10
YANKTON        CLOUDY    19  12  73 SE3       30.06F
$$

ABBREVIATIONS USED IN REMARKS
   TC - TEMPERATURE IN CELSIUS
  WCI - WIND CHILL INDEX
   HX - HEAT INDEX
  VSB - VISIBILITY




USA.gov is the U.S. government's official web portal to all federal, state and local government web resources and services.